Location: Newark
(30.1000°N, 109.4667°E)
Time: 12:40:37
(UTC+00:00)

A-11 Canister half - Pass Details

Date: 22 February 2020
Orbit: 1516 x 1683 km, 47.2° (Epoch: 05 April)

Event Time Altitude Azimuth Distance (km) Brightness Sun altitude
Rises 14:06:47 0° 310° (NW) 4,801 12.2 -46.0°
Reaches altitude 10° 14:10:04 10° 315° (NW) 3,791 11.5 -46.7°
Enters shadow 14:15:10 33° 334° (NNW) 2,403 10.1 -47.7°
